• Em Portugal
  • Lista de países
  • Para 7 dias
  • Temperatura da água
  • Mapas de satélite
  • Mapa do tempo
  • Widgets de tempo
  • user-avatar
    Iniciar Sessão

    Previsão horária em Zaborow

    Hoje, 20 Julho, Sexta-feira

    Tempo Temperatura Precipitação Vento Pressão Humidade
    00:00 +19°C° 0 mm 4 m/s 738 mmHg 96%
    01:00 +18°C° 0 mm 4 m/s 738 mmHg 96%
    02:00 +18°C° 0 mm 4 m/s 738 mmHg 96%
    03:00 +18°C° 0 mm 4 m/s 738 mmHg 96%
    04:00 +18°C° 0 mm 4 m/s 738 mmHg 96%
    05:00 +19°C° 0 mm 4 m/s 738 mmHg 95%
    06:00 +19°C° 0 mm 4 m/s 738 mmHg 94%
    07:00 +19°C° 0 mm 4 m/s 738 mmHg 93%
    08:00 +20°C° 0,1 mm 4 m/s 738 mmHg 91%
    09:00 +21°C° 0,1 mm 4 m/s 738 mmHg 88%
    10:00 +21°C° 0,1 mm 4 m/s 738 mmHg 86%
    11:00 +22°C° 0,2 mm 4 m/s 738 mmHg 80%
    12:00 +25°C° 0,2 mm 4 m/s 738 mmHg 74%
    13:00 +26°C° 0,2 mm 5 m/s 738 mmHg 68%
    14:00 +26°C° 0,1 mm 4 m/s 738 mmHg 67%
    15:00 +26°C° 0,1 mm 4 m/s 738 mmHg 66%
    16:00 +26°C° 0,1 mm 4 m/s 738 mmHg 65%
    17:00 +25°C° 0,1 mm 3 m/s 738 mmHg 71%
    18:00 +24°C° 0,1 mm 3 m/s 738 mmHg 77%
    19:00 +21°C° 0,1 mm 2 m/s 738 mmHg 83%
    20:00 +20°C° 0 mm 2 m/s 739 mmHg 85%
    21:00 +19°C° 0 mm 2 m/s 739 mmHg 88%
    22:00 +18°C° 0 mm 2 m/s 739 mmHg 91%
    23:00 +18°C° 0 mm 2 m/s 739 mmHg 92%

    Amanhã, 21 Julho, Sábado

    Tempo Temperatura Precipitação Vento Pressão Humidade
    00:00 +17°C° 0 mm 2 m/s 739 mmHg 92%
    01:00 +17°C° 0 mm 2 m/s 739 mmHg 93%
    02:00 +17°C° 0 mm 2 m/s 739 mmHg 94%
    03:00 +16°C° 0 mm 2 m/s 739 mmHg 94%
    04:00 +16°C° 0 mm 2 m/s 739 mmHg 94%
    05:00 +17°C° 0 mm 2 m/s 739 mmHg 90%
    06:00 +19°C° 0 mm 2 m/s 739 mmHg 85%
    07:00 +20°C° 0 mm 2 m/s 739 mmHg 80%
    08:00 +23°C° 0 mm 2 m/s 739 mmHg 74%
    09:00 +24°C° 0 mm 2 m/s 739 mmHg 68%
    10:00 +25°C° 0 mm 2 m/s 739 mmHg 62%
    11:00 +26°C° 0 mm 2 m/s 739 mmHg 59%
    12:00 +27°C° 0 mm 3 m/s 739 mmHg 56%
    13:00 +27°C° 0 mm 3 m/s 739 mmHg 53%
    14:00 +27°C° 0 mm 3 m/s 739 mmHg 55%
    15:00 +27°C° 0 mm 2 m/s 739 mmHg 56%
    16:00 +27°C° 0 mm 2 m/s 739 mmHg 57%
    17:00 +25°C° 0 mm 2 m/s 739 mmHg 63%
    18:00 +24°C° 0 mm 2 m/s 739 mmHg 70%
    19:00 +22°C° 0 mm 1 m/s 739 mmHg 76%
    20:00 +21°C° 0 mm 1 m/s 739 mmHg 79%
    21:00 +20°C° 0 mm 1 m/s 739 mmHg 82%
    22:00 +19°C° 0 mm 1 m/s 739 mmHg 84%
    23:00 +17°C° 0 mm 0 m/s 739 mmHg 85%

    Depois de amanhã, 22 Julho, Domingo

    Tempo Temperatura Precipitação Vento Pressão Humidade
    00:00 +16°C° 0 mm 0 m/s 739 mmHg 86%
    01:00 +16°C° 0 mm 0 m/s 739 mmHg 87%
    02:00 +16°C° 0 mm 0 m/s 739 mmHg 88%
    03:00 +15°C° 0 mm 0 m/s 739 mmHg 89%
    04:00 +15°C° 0 mm 0 m/s 738 mmHg 89%
    05:00 +17°C° 0 mm 0 m/s 738 mmHg 84%
    06:00 +19°C° 0 mm 0 m/s 739 mmHg 79%
    07:00 +21°C° 0 mm 0 m/s 739 mmHg 74%
    08:00 +24°C° 0 mm 1 m/s 739 mmHg 70%
    09:00 +25°C° 0 mm 1 m/s 739 mmHg 65%
    10:00 +26°C° 0 mm 2 m/s 738 mmHg 60%
    11:00 +27°C° 0 mm 2 m/s 738 mmHg 58%
    12:00 +27°C° 0 mm 2 m/s 738 mmHg 56%
    13:00 +28°C° 0 mm 2 m/s 738 mmHg 54%
    14:00 +28°C° 0,2 mm 2 m/s 738 mmHg 56%
    15:00 +28°C° 0,2 mm 2 m/s 737 mmHg 58%
    16:00 +27°C° 0,2 mm 2 m/s 737 mmHg 60%
    17:00 +26°C° 0,2 mm 2 m/s 737 mmHg 65%
    18:00 +24°C° 0,2 mm 2 m/s 737 mmHg 70%
    19:00 +23°C° 0,2 mm 1 m/s 737 mmHg 75%
    20:00 +22°C° 0 mm 1 m/s 737 mmHg 76%
    21:00 +21°C° 0 mm 1 m/s 737 mmHg 78%
    22:00 +20°C° 0 mm 1 m/s 737 mmHg 79%
    23:00 +20°C° 0 mm 1 m/s 737 mmHg 81%

    23 Julho, Segunda-feira

    Tempo Temperatura Precipitação Vento Pressão Humidade
    00:00 +19°C° 0 mm 1 m/s 737 mmHg 83%
    01:00 +19°C° 0 mm 1 m/s 737 mmHg 84%
    02:00 +18°C° 0 mm 1 m/s 737 mmHg 86%
    03:00 +18°C° 0 mm 1 m/s 737 mmHg 87%
    04:00 +18°C° 0 mm 1 m/s 737 mmHg 88%
    05:00 +19°C° 0 mm 1 m/s 737 mmHg 84%
    06:00 +21°C° 0 mm 1 m/s 737 mmHg 81%
    07:00 +22°C° 0 mm 1 m/s 737 mmHg 77%
    08:00 +24°C° 0 mm 2 m/s 737 mmHg 72%
    09:00 +25°C° 0 mm 2 m/s 737 mmHg 67%
    10:00 +27°C° 0 mm 2 m/s 737 mmHg 62%
    11:00 +27°C° 0 mm 2 m/s 737 mmHg 60%
    12:00 +28°C° 0 mm 3 m/s 736 mmHg 58%
    13:00 +28°C° 0 mm 3 m/s 736 mmHg 56%
    14:00 +28°C° 0,2 mm 3 m/s 736 mmHg 60%
    15:00 +28°C° 0,2 mm 3 m/s 736 mmHg 64%
    16:00 +27°C° 0,2 mm 3 m/s 736 mmHg 69%
    17:00 +26°C° 0,6 mm 3 m/s 736 mmHg 74%
    18:00 +24°C° 0,6 mm 3 m/s 737 mmHg 80%
    19:00 +23°C° 0,6 mm 2 m/s 737 mmHg 86%
    20:00 +21°C° 0,1 mm 2 m/s 737 mmHg 88%
    21:00 +20°C° 0,1 mm 2 m/s 737 mmHg 90%
    22:00 +19°C° 0,1 mm 2 m/s 737 mmHg 92%
    23:00 +19°C° 0 mm 2 m/s 737 mmHg 93%

    24 Julho, Terça-feira

    Tempo Temperatura Precipitação Vento Pressão Humidade
    00:00 +18°C° 0 mm 2 m/s 737 mmHg 94%
    01:00 +19°C° 0 mm 1 m/s 737 mmHg 94%
    02:00 +19°C° 0 mm 1 m/s 737 mmHg 95%
    03:00 +18°C° 0 mm 1 m/s 738 mmHg 95%
    04:00 +18°C° 0 mm 1 m/s 738 mmHg 96%
    05:00 +18°C° 0 mm 2 m/s 738 mmHg 93%
    06:00 +19°C° 0 mm 2 m/s 738 mmHg 90%
    07:00 +20°C° 0 mm 2 m/s 738 mmHg 88%
    08:00 +23°C° 0 mm 2 m/s 738 mmHg 80%
    09:00 +24°C° 0 mm 3 m/s 738 mmHg 71%
    10:00 +26°C° 0 mm 3 m/s 738 mmHg 63%
    11:00 +26°C° 0 mm 3 m/s 738 mmHg 60%
    12:00 +27°C° 0 mm 3 m/s 738 mmHg 56%
    13:00 +27°C° 0 mm 3 m/s 738 mmHg 53%
    14:00 +27°C° 0 mm 3 m/s 738 mmHg 53%
    15:00 +27°C° 0 mm 2 m/s 737 mmHg 53%
    16:00 +27°C° 0 mm 2 m/s 737 mmHg 54%
    17:00 +26°C° 0 mm 2 m/s 737 mmHg 60%
    18:00 +24°C° 0 mm 2 m/s 737 mmHg 66%
    19:00 +23°C° 0 mm 1 m/s 737 mmHg 73%
    20:00 +22°C° 0 mm 1 m/s 737 mmHg 75%
    21:00 +21°C° 0 mm 1 m/s 737 mmHg 78%
    22:00 +20°C° 0 mm 1 m/s 737 mmHg 81%
    23:00 +19°C° 0 mm 1 m/s 737 mmHg 82%

    25 Julho, Quarta-feira

    Tempo Temperatura Precipitação Vento Pressão Humidade
    00:00 +19°C° 0 mm 1 m/s 737 mmHg 83%
    01:00 +19°C° 0 mm 1 m/s 737 mmHg 85%
    02:00 +18°C° 0 mm 1 m/s 737 mmHg 86%
    03:00 +18°C° 0 mm 1 m/s 737 mmHg 87%
    04:00 +18°C° 0 mm 1 m/s 737 mmHg 88%
    05:00 +19°C° 0 mm 1 m/s 738 mmHg 84%
    06:00 +21°C° 0 mm 1 m/s 738 mmHg 80%
    07:00 +22°C° 0 mm 1 m/s 738 mmHg 76%
    08:00 +23°C° 0,2 mm 2 m/s 738 mmHg 73%
    09:00 +25°C° 0,2 mm 2 m/s 738 mmHg 70%
    10:00 +26°C° 0,2 mm 3 m/s 738 mmHg 68%
    11:00 +26°C° 0,6 mm 3 m/s 738 mmHg 68%
    12:00 +26°C° 0,6 mm 3 m/s 737 mmHg 68%
    13:00 +27°C° 0,6 mm 3 m/s 737 mmHg 69%
    14:00 +26°C° 1,4 mm 3 m/s 737 mmHg 73%
    15:00 +26°C° 1,4 mm 3 m/s 737 mmHg 76%
    16:00 +25°C° 1,4 mm 2 m/s 737 mmHg 80%
    17:00 +24°C° 0,2 mm 2 m/s 737 mmHg 83%
    18:00 +23°C° 0,2 mm 2 m/s 737 mmHg 86%
    19:00 +22°C° 0,2 mm 1 m/s 737 mmHg 90%
    20:00 +21°C° 0,1 mm 1 m/s 737 mmHg 90%
    21:00 +21°C° 0,1 mm 1 m/s 738 mmHg 91%
    22:00 +20°C° 0,1 mm 1 m/s 738 mmHg 92%
    23:00 +19°C° 0 mm 1 m/s 738 mmHg 93%
    Mostrar mais